When you browse on this site, cookies collect data to enhance your experience and personalize the content and advertising you see.
Visit our Privacy Policy to learn more. By continuing to use the site, you agree to this use of cookies and data.
  • In Latvia
  • List of Countries
  • For 7 days
  • Water Temperature
  • Weather Map
  • Weather Widgets
  • user-avatar
    Login

    Hourly Weather Laszkar Gah

    Today, 24 October, Thursday

    Time Temperature Precipitation Wind Pressure Humidity
    00:00 +15°C° 0 mm 2 mps 692 mmHg 27%
    01:00 +14°C° 0 mm 2 mps 692 mmHg 27%
    02:00 +14°C° 0 mm 2 mps 692 mmHg 27%
    03:00 +13°C° 0 mm 2 mps 692 mmHg 27%
    04:00 +12°C° 0 mm 3 mps 692 mmHg 27%
    05:00 +12°C° 0 mm 3 mps 693 mmHg 27%
    06:00 +14°C° 0 mm 2 mps 693 mmHg 28%
    07:00 +14°C° 0 mm 2 mps 694 mmHg 28%
    08:00 +16°C° 0 mm 2 mps 695 mmHg 25%
    09:00 +18°C° 0 mm 2 mps 695 mmHg 22%
    10:00 +21°C° 0 mm 2 mps 695 mmHg 19%
    11:00 +23°C° 0 mm 2 mps 695 mmHg 17%
    12:00 +24°C° 0 mm 1 mps 695 mmHg 15%
    13:00 +26°C° 0 mm 1 mps 694 mmHg 13%
    14:00 +26°C° 0 mm 1 mps 694 mmHg 13%
    15:00 +26°C° 0 mm 2 mps 694 mmHg 12%
    16:00 +27°C° 0 mm 2 mps 694 mmHg 12%
    17:00 +24°C° 0 mm 2 mps 693 mmHg 15%
    18:00 +21°C° 0 mm 1 mps 693 mmHg 18%
    19:00 +18°C° 0 mm 1 mps 693 mmHg 22%
    20:00 +16°C° 0 mm 1 mps 693 mmHg 22%
    21:00 +16°C° 0 mm 1 mps 693 mmHg 23%
    22:00 +15°C° 0 mm 1 mps 693 mmHg 23%
    23:00 +15°C° 0 mm 1 mps 693 mmHg 23%

    Tomorrow, 25 October, Friday

    Time Temperature Precipitation Wind Pressure Humidity
    00:00 +14°C° 0 mm 1 mps 693 mmHg 24%
    01:00 +13°C° 0 mm 1 mps 693 mmHg 24%
    02:00 +13°C° 0 mm 2 mps 693 mmHg 23%
    03:00 +13°C° 0 mm 2 mps 693 mmHg 23%
    04:00 +13°C° 0 mm 2 mps 693 mmHg 22%
    05:00 +14°C° 0 mm 2 mps 694 mmHg 22%
    06:00 +14°C° 0 mm 2 mps 694 mmHg 21%
    07:00 +15°C° 0 mm 2 mps 695 mmHg 20%
    08:00 +17°C° 0 mm 2 mps 695 mmHg 18%
    09:00 +19°C° 0 mm 2 mps 696 mmHg 16%
    10:00 +23°C° 0 mm 2 mps 696 mmHg 13%
    11:00 +24°C° 0 mm 2 mps 696 mmHg 12%
    12:00 +26°C° 0 mm 2 mps 695 mmHg 11%
    13:00 +27°C° 0 mm 3 mps 695 mmHg 10%
    14:00 +27°C° 0 mm 3 mps 695 mmHg 10%
    15:00 +27°C° 0 mm 3 mps 695 mmHg 11%
    16:00 +27°C° 0 mm 3 mps 694 mmHg 11%
    17:00 +25°C° 0 mm 3 mps 694 mmHg 13%
    18:00 +21°C° 0 mm 3 mps 694 mmHg 15%
    19:00 +18°C° 0 mm 3 mps 694 mmHg 18%
    20:00 +17°C° 0 mm 2 mps 694 mmHg 19%
    21:00 +16°C° 0 mm 2 mps 694 mmHg 20%
    22:00 +15°C° 0 mm 1 mps 694 mmHg 21%
    23:00 +15°C° 0 mm 1 mps 694 mmHg 23%

    Day after tomorrow, 26 October, Saturday

    Time Temperature Precipitation Wind Pressure Humidity
    00:00 +15°C° 0 mm 1 mps 694 mmHg 24%
    01:00 +14°C° 0 mm 1 mps 693 mmHg 26%
    02:00 +14°C° 0 mm 1 mps 693 mmHg 27%
    03:00 +14°C° 0 mm 1 mps 693 mmHg 28%
    04:00 +14°C° 0 mm 2 mps 694 mmHg 29%
    05:00 +15°C° 0 mm 1 mps 694 mmHg 29%
    06:00 +16°C° 0 mm 1 mps 695 mmHg 28%
    07:00 +16°C° 0 mm 1 mps 696 mmHg 27%
    08:00 +20°C° 0 mm 1 mps 696 mmHg 24%
    09:00 +22°C° 0 mm 1 mps 697 mmHg 21%
    10:00 +25°C° 0 mm 2 mps 697 mmHg 17%
    11:00 +26°C° 0 mm 2 mps 697 mmHg 16%
    12:00 +27°C° 0 mm 2 mps 696 mmHg 15%
    13:00 +29°C° 0 mm 2 mps 696 mmHg 14%
    14:00 +29°C° 0 mm 2 mps 696 mmHg 15%
    15:00 +29°C° 0 mm 2 mps 695 mmHg 15%
    16:00 +29°C° 0 mm 2 mps 695 mmHg 15%
    17:00 +26°C° 0 mm 1 mps 695 mmHg 19%
    18:00 +23°C° 0 mm 1 mps 694 mmHg 23%
    19:00 +18°C° 0 mm 0 mps 694 mmHg 27%
    20:00 +20°C° 0 mm 1 mps 694 mmHg 27%
    21:00 +19°C° 0 mm 1 mps 694 mmHg 27%
    22:00 +19°C° 0 mm 1 mps 695 mmHg 28%
    23:00 +19°C° 0 mm 1 mps 694 mmHg 27%

    , 27 October, Sunday

    Time Temperature Precipitation Wind Pressure Humidity
    00:00 +18°C° 0 mm 2 mps 694 mmHg 27%
    01:00 +18°C° 0 mm 2 mps 694 mmHg 27%
    02:00 +18°C° 0 mm 2 mps 694 mmHg 28%
    03:00 +17°C° 0 mm 2 mps 694 mmHg 28%
    04:00 +17°C° 0 mm 2 mps 694 mmHg 28%
    05:00 +18°C° 0 mm 2 mps 694 mmHg 27%
    06:00 +19°C° 0 mm 3 mps 695 mmHg 25%
    07:00 +20°C° 0 mm 3 mps 695 mmHg 24%
    08:00 +22°C° 0 mm 3 mps 696 mmHg 21%
    09:00 +26°C° 0 mm 3 mps 696 mmHg 18%
    10:00 +28°C° 0 mm 3 mps 696 mmHg 15%
    11:00 +29°C° 0 mm 2 mps 696 mmHg 15%
    12:00 +31°C° 0 mm 2 mps 695 mmHg 14%
    13:00 +32°C° 0 mm 2 mps 695 mmHg 14%
    14:00 +31°C° 0 mm 2 mps 695 mmHg 14%
    15:00 +31°C° 0 mm 1 mps 694 mmHg 15%
    16:00 +31°C° 0 mm 1 mps 694 mmHg 15%
    17:00 +29°C° 0 mm 2 mps 694 mmHg 18%
    18:00 +26°C° 0 mm 2 mps 694 mmHg 21%
    19:00 +24°C° 0 mm 2 mps 693 mmHg 24%
    20:00 +23°C° 0 mm 2 mps 694 mmHg 24%
    21:00 +22°C° 0 mm 3 mps 694 mmHg 24%
    22:00 +22°C° 0 mm 3 mps 694 mmHg 24%
    23:00 +21°C° 0 mm 3 mps 694 mmHg 26%

    27 October, Sunday

    Time Temperature Precipitation Wind Pressure Humidity
    00:00 +18°C° 0 mm 2 mps 694 mmHg 27%
    01:00 +18°C° 0 mm 2 mps 694 mmHg 27%
    02:00 +18°C° 0 mm 2 mps 694 mmHg 28%
    03:00 +17°C° 0 mm 2 mps 694 mmHg 28%
    04:00 +17°C° 0 mm 2 mps 694 mmHg 28%
    05:00 +18°C° 0 mm 2 mps 694 mmHg 27%
    06:00 +19°C° 0 mm 3 mps 695 mmHg 25%
    07:00 +20°C° 0 mm 3 mps 695 mmHg 24%
    08:00 +22°C° 0 mm 3 mps 696 mmHg 21%
    09:00 +26°C° 0 mm 3 mps 696 mmHg 18%
    10:00 +28°C° 0 mm 3 mps 696 mmHg 15%
    11:00 +29°C° 0 mm 2 mps 696 mmHg 15%
    12:00 +31°C° 0 mm 2 mps 695 mmHg 14%
    13:00 +32°C° 0 mm 2 mps 695 mmHg 14%
    14:00 +31°C° 0 mm 2 mps 695 mmHg 14%
    15:00 +31°C° 0 mm 1 mps 694 mmHg 15%
    16:00 +31°C° 0 mm 1 mps 694 mmHg 15%
    17:00 +29°C° 0 mm 2 mps 694 mmHg 18%
    18:00 +26°C° 0 mm 2 mps 694 mmHg 21%
    19:00 +24°C° 0 mm 2 mps 693 mmHg 24%
    20:00 +23°C° 0 mm 2 mps 694 mmHg 24%
    21:00 +22°C° 0 mm 3 mps 694 mmHg 24%
    22:00 +22°C° 0 mm 3 mps 694 mmHg 24%
    23:00 +21°C° 0 mm 3 mps 694 mmHg 26%

    28 October, Monday

    Time Temperature Precipitation Wind Pressure Humidity
    00:00 +20°C° 0 mm 3 mps 693 mmHg 27%
    01:00 +19°C° 0 mm 3 mps 693 mmHg 28%
    02:00 +19°C° 0 mm 3 mps 693 mmHg 29%
    03:00 +19°C° 0 mm 3 mps 693 mmHg 31%
    04:00 +19°C° 0 mm 3 mps 693 mmHg 32%
    05:00 +19°C° 0 mm 3 mps 694 mmHg 31%
    06:00 +20°C° 0 mm 3 mps 694 mmHg 31%
    07:00 +20°C° 0 mm 4 mps 695 mmHg 30%
    08:00 +24°C° 0 mm 3 mps 695 mmHg 26%
    09:00 +26°C° 0 mm 3 mps 696 mmHg 22%
    10:00 +29°C° 0 mm 2 mps 696 mmHg 18%
    11:00 +30°C° 0 mm 2 mps 696 mmHg 17%
    12:00 +31°C° 0 mm 2 mps 695 mmHg 16%
    13:00 +32°C° 0 mm 2 mps 695 mmHg 16%
    14:00 +31°C° 0 mm 3 mps 695 mmHg 16%
    15:00 +31°C° 0 mm 3 mps 695 mmHg 17%
    16:00 +32°C° 0 mm 4 mps 694 mmHg 18%
    17:00 +28°C° 0 mm 3 mps 694 mmHg 23%
    18:00 +26°C° 0 mm 3 mps 694 mmHg 29%
    19:00 +22°C° 0 mm 3 mps 694 mmHg 35%
    20:00 +21°C° 0 mm 3 mps 694 mmHg 37%
    21:00 +21°C° 0 mm 3 mps 694 mmHg 40%
    22:00 +20°C° 0 mm 3 mps 695 mmHg 42%
    23:00 +19°C° 0 mm 3 mps 694 mmHg 44%

    29 October, Tuesday

    Time Temperature Precipitation Wind Pressure Humidity
    00:00 +19°C° 0 mm 3 mps 694 mmHg 45%
    01:00 +19°C° 0 mm 3 mps 694 mmHg 46%
    02:00 +18°C° 0 mm 3 mps 694 mmHg 47%
    03:00 +18°C° 0 mm 3 mps 694 mmHg 48%
    04:00 +18°C° 0 mm 3 mps 694 mmHg 49%
    05:00 +18°C° 0 mm 3 mps 695 mmHg 48%
    06:00 +19°C° 0 mm 2 mps 695 mmHg 47%
    07:00 +19°C° 0 mm 2 mps 696 mmHg 46%
    08:00 +21°C° 0 mm 2 mps 696 mmHg 41%
    09:00 +24°C° 0 mm 2 mps 697 mmHg 35%
    10:00 +27°C° 0 mm 2 mps 697 mmHg 30%
    11:00 +28°C° 0 mm 3 mps 697 mmHg 27%
    12:00 +29°C° 0 mm 4 mps 696 mmHg 25%
    13:00 +30°C° 0 mm 4 mps 696 mmHg 23%
    14:00 +29°C° 0 mm 5 mps 695 mmHg 22%
    15:00 +29°C° 0 mm 5 mps 695 mmHg 22%
    16:00 +29°C° 0 mm 5 mps 695 mmHg 21%
    17:00 +27°C° 0 mm 4 mps 695 mmHg 25%
    18:00 +23°C° 0 mm 4 mps 695 mmHg 28%
    19:00 +21°C° 0 mm 3 mps 695 mmHg 31%
    20:00 +20°C° 0 mm 2 mps 695 mmHg 34%
    21:00 +19°C° 0 mm 2 mps 695 mmHg 36%
    22:00 +19°C° 0 mm 1 mps 695 mmHg 39%
    23:00 +18°C° 0 mm 1 mps 694 mmHg 41%
    Show more